Siga o Apolo11 no Facebook   Siga o Apolo11 no Twiiter
Ciência, Espaço e Tecnologia




Elementos Keplerianos formato Two Line

Para que um programa de rastreio possa saber a localização exata de qualquer satélite no espaço e assim poder rastreá-lo corretamente, é necessário que ele seja carregado com algumas informações.

Estas informações são chamadas de Elementos Orbitais ou Elementos Keplerianos e consistem em 2 linhas com dezenas de números. Esses números nada mais são que os parâmetros orbitais do satélite, tais como altitude, atitude, excentricidade da órbita, número de órbitas por dia, etc.

Com base nestas informações o programa é capaz de determinar com bastante exatidão a posição de qualquer satélite no espaço e nos informar em qual horário este estará dentro do alcance de nossa estação. Para que isso seja feito com precisão é necessário que os dados estejam sempre bem atualizadas.

Devido aos parâmetros orbitais serem descritos em 2 linhas, estes formato é também conhecido internacionalmente por 2line (leia-se Two Line”).

Para atualizar seu programa de rastreio basta copiar os dados disponibilizados e fornece-los ao programa. Nossos elementos orbitais são atualizados diariamente.

NOAATodos os satélites ambientais da série NOAA
30 DiasSatélites lançados nos últimos 30 dias
ISSSatélites e foguetes relacionados à Estação Espacial Internacional
HAMSatélites construídos por radiomadores
CUBESatélites tipo cubo, com 10 centímetros de lado
METEOSatélites voltados à previsão do tempo
EDUSatélites construídos e operados por universidades
VIS100 satélites mais brilhantes que podem ser vistos a olho nú



Satélites Visíveis
ATLAS CENTAUR 2         
1 00694U 63047A   20274.52894276  .00000285  00000-0  25830-4 0  9994
2 00694  30.3577  32.2453 0585663  19.1209 343.0435 14.02644498851862
THOR AGENA D R/B        
1 00733U 64002A   20274.45930535  .00000012  00000-0  21941-4 0  9998
2 00733  98.9965 170.0145 0032838 286.6197  73.1381 14.32406217953855
SL-3 R/B                
1 00877U 64053B   20274.56135780 -.00000063  00000-0  12197-4 0  9994
2 00877  65.0798  21.8240 0068776 344.4462  15.4522 14.59400262976832
SL-8 R/B                
1 02802U 67045B   20274.49006990  .00000122  00000-0  43166-4 0  9995
2 02802  74.0104  90.1450 0067094 216.4115 143.2469 14.43777869802347
SL-8 R/B                
1 03230U 68040B   20274.40689571  .00000234  00000-0  27758-4 0  9993
2 03230  74.0382 358.1407 0030667 347.5815  12.4607 14.90650632793237
OAO 2                   
1 03597U 68110A   20274.23464258  .00000033  00000-0  14304-4 0  9991
2 03597  34.9929 179.2652 0005328 136.7750 223.3358 14.45860537731371
ISIS 1                  
1 03669U 69009A   20274.43245349  .00000007  00000-0 -10665-4 0  9997
2 03669  88.4443  14.9484 1712457 135.0308 240.2966 11.29491513124231
SERT 2                  
1 04327U 70009A   20274.20241295 -.00000047  00000-0 -81384-5 0  9994
2 04327  99.1839 314.6452 0004567 203.4499 198.0879 13.58495435510156
SL-3 R/B                
1 04814U 70113B   20274.56600506  .00002313  00000-0  65499-4 0  9998
2 04814  81.1445  30.3878 0023137 268.8266  91.0322 15.35577683719267
SL-3 R/B                
1 05118U 71028B   20274.57704284  .00000966  00000-0  49481-4 0  9996
2 05118  81.2572 215.5775 0046104 209.8361 150.0238 15.14674075685736
ASTEX 1                 
1 05560U 71089A   20274.41459930  .00000086  00000-0  23439-4 0  9990
2 05560  92.7121 230.6191 0014233 301.1518  58.8290 14.48085990574718
SL-8 R/B                
1 05730U 71119B   20274.10053389  .00001596  00000-0  10379-3 0  9992
2 05730  73.8936 170.3655 0689571 175.3017 185.5075 14.04357371374145
COSMOS 482 DESCENT CRAFT
1 06073U 72023E   20274.55457384  .00019475  54642-5  80816-4 0  9995
2 06073  52.0516  57.8305 1335056 312.8206  36.7720 13.12418954515992
OAO 3 (COPERNICUS)      
1 06153U 72065A   20274.46850743  .00000049  00000-0  14848-4 0  9999
2 06153  35.0071  69.4381 0006344 150.7193 243.5335 14.57951875556022
ATLAS CENTAUR R/B       
1 06155U 72065B   20274.51070435  .00000145  00000-0  26432-4 0  9998
2 06155  35.0052 351.6489 0038355 319.0614  40.7207 14.71607488548102
SL-8 R/B                
1 07004U 73107B   20274.53328592  .00029398  19826-5  20609-3 0  9993
2 07004  73.9168 277.5187 0088355 198.8485 160.9462 15.69093660423705
SL-8 R/B                
1 08459U 75112B   20274.46080029 -.00000057  00000-0 -10376-4 0  9991
2 08459  74.0594  67.2607 0016903 294.7381  65.2013 14.36817950346507
SL-3 R/B                
1 10114U 77057B   20274.56761569  .00000468  00000-0  26506-4 0  9994
2 10114  97.3222  60.0300 0015441  82.7249 277.5739 15.17536051365503
SEASAT 1                
1 10967U 78064A   20274.29478338 -.00000051  00000-0  25256-4 0  9998
2 10967 108.0078 290.0752 0003001 263.8525  96.2277 14.43837428219727
METEOR 1-29             
1 11251U 79005A   20274.37341923  .00002100  00000-0  56574-4 0  9992
2 11251  97.6546 201.6734 0017060 106.6896 253.6223 15.38944475824672
SL-14 R/B               
1 11267U 79011B   20274.31412945  .00000108  00000-0  87530-5 0  9996
2 11267  82.5276 175.3658 0016480 189.7621 170.3280 14.88981491232996
SL-8 R/B                
1 11574U 79089B   20274.42178729  .00000056  00000-0  25648-4 0  9996
2 11574  74.0705 161.5570 0015012 122.7155 237.5450 14.40767164149954
SL-14 R/B               
1 11672U 80005B   20274.43878960  .00000097  00000-0  78400-5 0  9990
2 11672  82.5186  25.4258 0015240 290.8533  69.1052 14.88007814180910
SL-8 R/B                
1 12139U 81003B   20274.36616979  .00001540  00000-0  72535-4 0  9996
2 12139  82.9464 230.3536 0460095 254.2692 100.7325 14.57455607 21743
SL-3 R/B                
1 12465U 81046B   20274.57256598  .00000413  00000-0  20700-4 0  9990
2 12465  81.2397  83.3724 0032825 264.1934  95.5552 15.14687490136192
METEOR PRIRODA          
1 12585U 81065A   20274.53105767  .00000826  00000-0  39478-4 0  9991
2 12585  97.5563 263.4966 0014798 155.8054 204.3880 15.21806237139082
SL-3 R/B                
1 12904U 81103B   20274.56102042  .00000108  00000-0  57167-5 0  9994
2 12904  81.1796 342.8396 0029093  71.5996 288.8387 15.05847527673379
SL-3 R/B                
1 13068U 82013B   20274.56769563 -.00000108  00000-0 -86436-5 0  9997
2 13068  81.1997 290.3068 0020004 312.0592  47.8929 15.07470865104200
SL-3 R/B                
1 13154U 82039B   20274.55016413  .00000249  00000-0  18555-4 0  9999
2 13154  81.1827 313.6068 0039595 340.7538  19.2182 14.98772487 83394
SL-3 R/B                
1 13403U 82079B   20274.56388089  .00000398  00000-0  24652-4 0  9992
2 13403  81.1692 332.5513 0031756 277.1045  82.6568 15.07209387 77449
COSMOS 1408             
1 13552U 82092A   20274.27006949  .00001566  00000-0  55770-4 0  9995
2 13552  82.5698 173.7425 0019218 120.4510 239.8631 15.27978312 80059
SL-14 R/B               
1 13553U 82092B   20274.57015810  .00000099  00000-0  88751-5 0  9992
2 13553  82.5719 194.6555 0022384  37.7831 135.2223 14.84241290 34150
SL-3 R/B                
1 13819U 83010B   20274.28804752  .00000576  00000-0  28489-4 0  9998
2 13819  81.1176 196.5673 0030842 292.1928  67.6029 15.15851069 55354
COSMOS 1455             
1 14032U 83037A   20274.28245971  .00000889  00000-0  41433-4 0  9998
2 14032  82.5176 339.8939 0018369  65.4994 294.8152 15.18392132 43338
SL-3 R/B                
1 14208U 83075B   20274.52868208  .00000383  00000-0  26292-4 0  9991
2 14208  97.4074 254.8000 0037375 307.0723  52.7092 15.11182663 28609
COSMOS 1500             
1 14372U 83099A   20274.38819837  .00001156  00000-0  53809-4 0  9990
2 14372  82.5147 235.1590 0013699 221.3083 253.2160 15.18859762 19728
COSMOS 1536             
1 14699U 84013A   20274.50068637 -.00000026  00000-0 -38363-5 0  9993
2 14699  82.5243 245.9043 0010830 275.7883  84.2109 15.05639033972663
COSMOS 1544             
1 14819U 84027A   20274.50464794  .00001602  00000-0  56968-4 0  9995
2 14819  82.4805 257.9398 0014935 121.9307 238.3387 15.28122554998915
SL-14 R/B               
1 14820U 84027B   20274.44890012  .00000105  00000-0  96943-5 0  9991
2 14820  82.5406 303.1391 0020077  59.4791 300.8402 14.83670068952986
ERBS                    
1 15354U 84108B   20274.53794250  .00004759  00000-0  90670-4 0  9990
2 15354  57.0071 339.1243 0004224 225.7152 134.3560 15.50168519983857
SL-8 R/B                
1 15483U 85006B   20274.49687566  .00000092  00000-0  40275-4 0  9999
2 15483  74.0450 310.3093 0019055 351.3433 111.3775 14.36327958868740
COSMOS 1626             
1 15494U 85009A   20274.17971626  .00001284  00000-0  51232-4 0  9991
2 15494  82.4772 126.2447 0002998 133.2321 226.9167 15.24286109951336
SL-12 R/B(2)            
1 15772U 85042D   20274.49389326  .00000002  00000-0  22748-4 0  9999
2 15772  71.1088 320.8354 0036660 331.9250 126.7623 14.21275881832131
SL-14 R/B               
1 15945U 85069B   20274.50702904  .00000088  00000-0  77208-5 0  9999
2 15945  82.5248  87.8806 0018166 277.8901  82.0252 14.84046162878118
SL-3 R/B                
1 16111U 85090B   20274.47517637  .00013585  00000-0  13642-3 0  9998
2 16111  97.4850  93.8946 0009363 236.4380 123.5986 15.65560971931452
SL-16 R/B               
1 16182U 85097B   20274.48368279 -.00000192  00000-0 -72885-4 0  9997
2 16182  71.0036   0.5110 0006241  27.3687  52.9628 14.16255741806024
SL-14 R/B               
1 16496U 86006B   20274.26561903  .00000099  00000-0  89123-5 0  9999
2 16496  82.5254 323.8850 0020687  67.1366 336.7968 14.84150102854392
COSMOS 1743             
1 16719U 86034A   20274.50823201  .00000864  00000-0  43549-4 0  9998
2 16719  82.5500 254.4913 0013734  82.0921  55.3121 15.15750051877340
SL-14 R/B               
1 16792U 86046B   20274.25296547  .00000094  00000-0  85584-5 0  9992
2 16792  82.4834 152.1604 0022892 300.1663 200.6240 14.83252396831826
SL-14 R/B               
1 16882U 86055B   20274.38299963  .00000089  00000-0  79551-5 0  9992
2 16882  82.5243 188.9490 0021106  50.7333  81.4840 14.83235995824841
